Regional Weather Roundup
Issued by NWS

Home | Current Version | Previous Version | Text Only | Print | Product List | Glossary On
Versions: 1 2 3 4 5 6 7 8 9 10 11 12 13 14 15 16 17 18 19 20 21 22 23 24 25 26 27 28 29 30 31 32 33 34 35 36 37 38 39 40 41 42 43 44 45 46 47 48 49 50
000
ASUS43 KFSD 180210
RWRSD

WEATHER ROUNDUP FOR SOUTH DAKOTA
NATIONAL WEATHER SERVICE SIOUX FALLS SD
900 PM CDT FRI APR 17 2015

NOTE: "FAIR" INDICATES FEW OR NO CLOUDS BELOW 12,000 FEET WITH NO
SIGNIFICANT WEATHER AND/OR OBSTRUCTIONS TO VISIBILITY.


SDZ001>005-009-010-012>017-180300-
NORTHWEST AND NORTH CENTRAL SOUTH DAKOTA

CITY           SKY/WX    TMP DP  RH WIND       PRES   REMARKS
BUFFALO          N/A     57  30  35 SE9       30.03S
FAITH            N/A     60  23  24 E7        30.08S
MOBRIDGE       PTCLDY    53  27  36 E3        30.05S
$$

SDZ012>016-024>037-041>051-057-063-072>074-180300-
SOUTHWEST AND SOUTH CENTRAL SOUTH DAKOTA

CITY           SKY/WX    TMP DP  RH WIND       PRES   REMARKS
RAPID CTY ARPT LGT RAIN  49  43  80 SW9       30.12R
PIERRE         CLOUDY    63  32  31 SE6       30.05S
CUSTER         LGT RAIN  40  38  93 NE10      30.13S
ELLSWORTH AFB  CLOUDY    51  40  63 SW9       30.11R
PHILIP         LGT RAIN  52  48  86 SW7       30.10R
PINE RIDGE     LGT RAIN  48  45  89 NE16G23   30.05F
SPEARFISH      FAIR      50  36  57 SE7       30.11S
WINNER         LGT RAIN  56  52  86 NW6       30.06F
$$

SDZ004>011-016>023-039-040-180300-
NORTHEAST SOUTH DAKOTA

CITY           SKY/WX    TMP DP  RH WIND       PRES   REMARKS
ABERDEEN       PTCLDY    59  28  30 NE6       30.06R
WATERTOWN      PTCLDY    58  22  24 CALM      30.06S
BROOKINGS      PTCLDY    61  25  25 N5        30.07R
SISSETON         N/A     53  24  32 W6        30.04R
$$

SDZ017-020-022-023-036>040-048>070-180300-
SOUTHEAST SOUTH DAKOTA

CITY           SKY/WX    TMP DP  RH WIND       PRES   REMARKS
SIOUX FALLS    MOCLDY    65  40  39 N5        30.03R
HURON          MOCLDY    61  25  25 NE3       30.04S
CHAMBERLAIN    CLOUDY    60  40  48 S5        30.06R
MITCHELL       CLOUDY    64  36  35 N6        30.04S
YANKTON        CLOUDY    59  48  67 NW9       30.02R
$$

ABBREVIATIONS USED IN REMARKS
   TC - TEMPERATURE IN CELSIUS
  WCI - WIND CHILL INDEX
   HX - HEAT INDEX
  VSB - VISIBILITY




USA.gov is the U.S. government's official web portal to all federal, state and local government web resources and services.